• In Romania
  • List of Countries
  • For 7 days
  • Water Temperature
  • Satellite Maps
  • Weather Map
  • Weather Widgets
  • user-avatar
    Login

    Hourly Weather Kotagiri

    Today, 15 October, Monday

    Time Temperature Precipitation Wind Pressure Humidity
    00:00 +16°C° 0.3 mm 1 mps 620 mmHg 82%
    01:00 +16°C° 0.3 mm 1 mps 619 mmHg 82%
    02:00 +16°C° 0.3 mm 1 mps 619 mmHg 83%
    03:00 +16°C° 0.2 mm 1 mps 619 mmHg 83%
    04:00 +15°C° 0.2 mm 1 mps 619 mmHg 84%
    05:00 +15°C° 0 mm 1 mps 619 mmHg 83%
    06:00 +16°C° 0.1 mm 1 mps 620 mmHg 79%
    07:00 +19°C° 0.1 mm 1 mps 620 mmHg 75%
    08:00 +20°C° 0.1 mm 1 mps 621 mmHg 70%
    09:00 +22°C° 0.2 mm 1 mps 622 mmHg 65%
    10:00 +23°C° 0.2 mm 1 mps 622 mmHg 60%
    11:00 +24°C° 0 mm 1 mps 622 mmHg 57%
    12:00 +24°C° 1.2 mm 1 mps 622 mmHg 57%
    13:00 +24°C° 1.2 mm 2 mps 621 mmHg 58%
    14:00 +24°C° 1.2 mm 2 mps 621 mmHg 59%
    15:00 +23°C° 1 mm 2 mps 620 mmHg 63%
    16:00 +22°C° 1 mm 1 mps 620 mmHg 68%
    17:00 +21°C° 1 mm 1 mps 620 mmHg 72%
    18:00 +20°C° 0.8 mm 1 mps 620 mmHg 75%
    19:00 +19°C° 0.8 mm 1 mps 620 mmHg 77%
    20:00 +18°C° 0.8 mm 1 mps 620 mmHg 80%
    21:00 +18°C° 0.7 mm 1 mps 620 mmHg 80%
    22:00 +18°C° 0.7 mm 1 mps 620 mmHg 81%
    23:00 +18°C° 0.7 mm 1 mps 620 mmHg 81%

    Tomorrow, 16 October, Tuesday

    Time Temperature Precipitation Wind Pressure Humidity
    00:00 +16°C° 0.7 mm 1 mps 619 mmHg 81%
    01:00 +16°C° 0.7 mm 1 mps 619 mmHg 82%
    02:00 +16°C° 0.7 mm 1 mps 619 mmHg 82%
    03:00 +16°C° 0.6 mm 1 mps 619 mmHg 83%
    04:00 +15°C° 0.6 mm 0 mps 619 mmHg 83%
    05:00 +15°C° 0.6 mm 0 mps 619 mmHg 84%
    06:00 +16°C° 0 mm 0 mps 620 mmHg 80%
    07:00 +17°C° 0 mm 0 mps 620 mmHg 77%
    08:00 +18°C° 0 mm 0 mps 621 mmHg 73%
    09:00 +21°C° 0.5 mm 1 mps 622 mmHg 69%
    10:00 +22°C° 0.5 mm 1 mps 622 mmHg 64%
    11:00 +23°C° 0.5 mm 1 mps 622 mmHg 60%
    12:00 +23°C° 1.1 mm 1 mps 622 mmHg 60%
    13:00 +23°C° 1.1 mm 2 mps 621 mmHg 61%
    14:00 +24°C° 1.1 mm 2 mps 620 mmHg 61%
    15:00 +21°C° 1.2 mm 2 mps 620 mmHg 66%
    16:00 +20°C° 1.2 mm 2 mps 620 mmHg 71%
    17:00 +19°C° 1.2 mm 2 mps 619 mmHg 76%
    18:00 +19°C° 0.6 mm 1 mps 620 mmHg 79%
    19:00 +19°C° 0.6 mm 1 mps 620 mmHg 81%
    20:00 +18°C° 0.6 mm 1 mps 620 mmHg 84%
    21:00 +18°C° 0.9 mm 1 mps 620 mmHg 84%
    22:00 +16°C° 0.9 mm 1 mps 620 mmHg 84%
    23:00 +16°C° 0.9 mm 1 mps 620 mmHg 83%

    Day after tomorrow, 17 October, Wednesday

    Time Temperature Precipitation Wind Pressure Humidity
    00:00 +16°C° 0.2 mm 1 mps 620 mmHg 84%
    01:00 +16°C° 0.2 mm 1 mps 619 mmHg 84%
    02:00 +16°C° 0.2 mm 1 mps 619 mmHg 84%
    03:00 +15°C° 0 mm 1 mps 619 mmHg 85%
    04:00 +15°C° 0 mm 1 mps 619 mmHg 86%
    05:00 +15°C° 0 mm 1 mps 619 mmHg 87%
    06:00 +16°C° 0.1 mm 1 mps 619 mmHg 83%
    07:00 +18°C° 0.1 mm 1 mps 620 mmHg 78%
    08:00 +20°C° 0.1 mm 1 mps 621 mmHg 74%
    09:00 +21°C° 0.4 mm 1 mps 622 mmHg 69%
    10:00 +22°C° 0.4 mm 1 mps 622 mmHg 65%
    11:00 +23°C° 0.4 mm 1 mps 622 mmHg 60%
    12:00 +23°C° 0.7 mm 1 mps 621 mmHg 60%
    13:00 +23°C° 0.7 mm 2 mps 621 mmHg 60%
    14:00 +23°C° 0.7 mm 2 mps 620 mmHg 60%
    15:00 +21°C° 1.1 mm 2 mps 620 mmHg 65%
    16:00 +20°C° 1.1 mm 2 mps 619 mmHg 70%
    17:00 +19°C° 1.1 mm 2 mps 619 mmHg 76%
    18:00 +19°C° 1.9 mm 1 mps 619 mmHg 78%
    19:00 +18°C° 1.9 mm 1 mps 620 mmHg 80%
    20:00 +18°C° 1.9 mm 1 mps 620 mmHg 82%
    21:00 +16°C° 0.6 mm 1 mps 620 mmHg 83%
    22:00 +16°C° 0.6 mm 1 mps 620 mmHg 83%
    23:00 +16°C° 0.6 mm 1 mps 620 mmHg 84%

    18 October, Thursday

    Time Temperature Precipitation Wind Pressure Humidity
    00:00 +16°C° 0.5 mm 1 mps 619 mmHg 84%
    01:00 +15°C° 0.5 mm 0 mps 619 mmHg 85%
    02:00 +14°C° 0.5 mm 0 mps 618 mmHg 85%
    03:00 +14°C° 0.4 mm 0 mps 618 mmHg 85%
    04:00 +14°C° 0.4 mm 0 mps 618 mmHg 85%
    05:00 +14°C° 0.4 mm 0 mps 618 mmHg 85%
    06:00 +15°C° 0.3 mm 0 mps 619 mmHg 82%
    07:00 +16°C° 0.3 mm 0 mps 620 mmHg 78%
    08:00 +18°C° 0.3 mm 1 mps 621 mmHg 75%
    09:00 +20°C° 0.3 mm 1 mps 621 mmHg 71%
    10:00 +21°C° 0.3 mm 1 mps 621 mmHg 67%
    11:00 +22°C° 0.3 mm 1 mps 621 mmHg 62%
    12:00 +22°C° 0.4 mm 1 mps 621 mmHg 62%
    13:00 +22°C° 0.4 mm 1 mps 620 mmHg 62%
    14:00 +22°C° 0.4 mm 1 mps 619 mmHg 61%
    15:00 +21°C° 0.2 mm 1 mps 619 mmHg 65%
    16:00 +20°C° 0.2 mm 1 mps 619 mmHg 70%
    17:00 +20°C° 0.2 mm 1 mps 619 mmHg 74%
    18:00 +19°C° 0.3 mm 1 mps 619 mmHg 76%
    19:00 +18°C° 0.3 mm 1 mps 619 mmHg 78%
    20:00 +18°C° 0.3 mm 1 mps 619 mmHg 81%
    21:00 +16°C° 0.4 mm 1 mps 619 mmHg 81%
    22:00 +16°C° 0.4 mm 1 mps 619 mmHg 81%
    23:00 +16°C° 0.4 mm 1 mps 619 mmHg 82%

    19 October, Friday

    Time Temperature Precipitation Wind Pressure Humidity
    00:00 +16°C° 0.3 mm 1 mps 619 mmHg 83%
    01:00 +15°C° 0.3 mm 1 mps 618 mmHg 83%
    02:00 +15°C° 0.3 mm 1 mps 618 mmHg 84%
    03:00 +15°C° 0.2 mm 1 mps 618 mmHg 85%
    04:00 +15°C° 0.2 mm 1 mps 618 mmHg 86%
    05:00 +15°C° 0.2 mm 1 mps 618 mmHg 87%
    06:00 +15°C° 0.1 mm 1 mps 619 mmHg 84%
    07:00 +16°C° 0.1 mm 1 mps 620 mmHg 81%
    08:00 +18°C° 0.1 mm 1 mps 621 mmHg 79%
    09:00 +19°C° 0.4 mm 2 mps 621 mmHg 73%
    10:00 +20°C° 0.4 mm 2 mps 621 mmHg 68%
    11:00 +21°C° 0.4 mm 2 mps 621 mmHg 62%
    12:00 +21°C° 1.2 mm 2 mps 621 mmHg 63%
    13:00 +21°C° 1.2 mm 2 mps 620 mmHg 63%
    14:00 +21°C° 1.2 mm 2 mps 619 mmHg 64%
    15:00 +20°C° 1.7 mm 2 mps 619 mmHg 68%
    16:00 +20°C° 1.7 mm 1 mps 619 mmHg 73%
    17:00 +19°C° 1.7 mm 1 mps 619 mmHg 78%
    18:00 +19°C° 1.4 mm 1 mps 619 mmHg 79%
    19:00 +18°C° 1.4 mm 1 mps 620 mmHg 81%
    20:00 +18°C° 1.4 mm 1 mps 620 mmHg 82%
    21:00 +16°C° 0.5 mm 1 mps 620 mmHg 83%
    22:00 +16°C° 0.5 mm 1 mps 620 mmHg 84%
    23:00 +16°C° 0.5 mm 1 mps 620 mmHg 85%

    20 October, Saturday

    Time Temperature Precipitation Wind Pressure Humidity
    00:00 +16°C° 0.3 mm 1 mps 619 mmHg 86%
    01:00 +15°C° 0.3 mm 1 mps 619 mmHg 87%
    02:00 +15°C° 0.3 mm 1 mps 618 mmHg 88%
    03:00 +15°C° 0.1 mm 1 mps 618 mmHg 88%
    04:00 +15°C° 0.1 mm 1 mps 618 mmHg 89%
    05:00 +15°C° 0.1 mm 1 mps 619 mmHg 89%
    06:00 +16°C° 0.1 mm 1 mps 620 mmHg 85%
    07:00 +18°C° 0.1 mm 1 mps 621 mmHg 81%
    08:00 +19°C° 0.1 mm 1 mps 622 mmHg 76%
    09:00 +20°C° 0.1 mm 1 mps 622 mmHg 70%
    10:00 +21°C° 0.1 mm 2 mps 622 mmHg 64%
    11:00 +23°C° 0.1 mm 2 mps 622 mmHg 58%
    12:00 +23°C° 0.5 mm 2 mps 622 mmHg 58%
    13:00 +23°C° 0.5 mm 2 mps 621 mmHg 58%
    14:00 +23°C° 0.5 mm 2 mps 620 mmHg 57%
    15:00 +23°C° 0.6 mm 1 mps 620 mmHg 62%
    16:00 +22°C° 0.6 mm 1 mps 620 mmHg 67%
    17:00 +21°C° 0.6 mm 1 mps 620 mmHg 71%
    18:00 +20°C° 0.6 mm 1 mps 620 mmHg 75%
    19:00 +18°C° 0.6 mm 1 mps 620 mmHg 78%
    20:00 +16°C° 0.6 mm 1 mps 621 mmHg 82%
    21:00 +16°C° 0.8 mm 1 mps 620 mmHg 83%
    22:00 +16°C° 0.8 mm 1 mps 620 mmHg 85%
    23:00 +16°C° 0.8 mm 1 mps 620 mmHg 86%
    Show more